Location: Unspecified
(60.4942°N, 0.0000°E)
Time: 02:39:22
(UTC+00:00)

SDS-1 - Visible Passes

Search period start: 04 April 2026 00:00
Search period end: 14 April 2026 00:00
Orbit: 645 x 649 km, 98.2° (Epoch: 29 March)

Date Brightness Start Highest point End Pass type
(mag) Time Alt. Az. Time Alt. Az. Time Alt. Az.
4 Apr ? 00:00:01 10° NNE 00:04:26 61° WNW 00:04:59 55° W visible
4 Apr ? 01:37:26 10° N 01:40:20 17° NW 01:42:43 12° W visible
4 Apr ? 22:48:57 10° NNE 22:53:14 43° E 22:53:14 43° E visible
5 Apr ? 00:25:42 10° N 00:29:54 41° WNW 00:30:57 35° W visible
5 Apr ? 02:03:30 10° N 02:05:33 13° NW 02:07:36 10° WNW visible
5 Apr ? 21:39:02 10° NE 21:41:24 14° E 21:41:28 14° E visible
5 Apr ? 23:14:27 10° NNE 23:18:56 66° ESE 23:19:11 64° SE visible
6 Apr ? 00:51:26 10° N 00:55:18 29° NW 00:56:55 23° W visible
6 Apr ? 02:30:33 10° NNW 02:30:43 10° NNW 02:30:52 10° NW visible
6 Apr ? 22:03:54 10° NE 22:07:19 21° E 22:07:25 21° E visible
6 Apr ? 23:40:02 10° NNE 23:44:32 83° WNW 23:45:09 66° SW visible
7 Apr ? 01:17:14 10° N 01:20:38 21° NW 01:22:53 15° W visible
7 Apr ? 22:29:09 10° NNE 22:33:09 31° E 22:33:23 31° E visible
8 Apr ? 00:05:39 10° NNE 00:10:03 56° WNW 00:11:07 44° WSW visible
8 Apr ? 01:43:09 10° N 01:45:53 16° NW 01:48:38 10° W visible
8 Apr ? 22:54:32 10° NNE 22:58:53 47° E 22:59:20 45° ESE visible
9 Apr ? 00:31:21 10° N 00:35:30 38° WNW 00:37:04 29° WSW visible
9 Apr ? 02:09:15 10° NNW 02:11:05 12° NW 02:12:55 10° WNW visible
9 Apr ? 21:44:27 10° NE 21:47:06 15° E 21:47:34 15° E visible
9 Apr ? 23:20:03 10° NNE 23:24:33 72° ESE 23:25:17 58° SSE visible
10 Apr ? 00:57:06 10° N 01:00:52 27° NW 01:03:02 19° W visible
10 Apr ? 22:09:25 10° NE 22:12:59 23° E 22:13:31 22° E visible
10 Apr ? 23:45:38 10° NNE 23:50:07 77° WNW 23:51:14 50° SW visible
11 Apr ? 01:22:54 10° N 01:26:11 20° NW 01:28:58 12° W visible
11 Apr ? 22:34:41 10° NNE 22:38:47 33° E 22:39:28 32° ESE visible
12 Apr ? 00:11:16 10° NNE 00:15:38 51° WNW 00:17:12 34° WSW visible
12 Apr ? 01:48:50 10° N 01:51:25 15° NW 01:54:00 10° WNW visible
12 Apr ? 21:25:38 10° ENE 21:26:47 11° E 21:27:40 10° E visible
12 Apr ? 23:00:07 10° NNE 23:04:30 51° E 23:05:24 43° SE visible
13 Apr ? 00:36:57 10° N 00:41:03 36° WNW 00:43:08 23° WSW visible
13 Apr ? 02:15:01 10° NNW 02:16:35 12° NW 02:18:10 10° WNW visible
13 Apr ? 21:49:52 10° NE 21:52:45 17° E 21:53:37 16° E visible
13 Apr ? 23:25:38 10° NNE 23:30:08 78° ESE 23:31:21 48° S visible
